This is the latest recevied weather packets stored in our database for station/object K9VSK-9. If no packets are shown the sender has not sent any weather packets the latest 1 day(s).
| Time | Temp. | Humidity | Pressure | Rain* | Wind** | Luminosity | Snow |
|---|---|---|---|---|---|---|---|
| 1778041487 | 8.89° C | 78% | 1011.9 hPa | 0 mm | 0 m/s | - | - |
| 1778041187 | 8.89° C | 79% | 1011.9 hPa | 0 mm | 0 m/s | - | - |
| 1778040887 | 8.89° C | 80% | 1012 hPa | 0 mm | 0 m/s | - | - |
| 1778040586 | 8.89° C | 78% | 1011.9 hPa | 0 mm | 0 m/s | - | - |
| 1778040286 | 8.89° C | 78% | 1011.9 hPa | 0 mm | 0.45 m/s, 360° | - | - |
| 1778039985 | 9.44° C | 80% | 1012 hPa | 0 mm | 0.89 m/s, 281° | - | - |
| 1778039685 | 9.44° C | 79% | 1012.1 hPa | 0 mm | 0.89 m/s, 282° | - | - |
| 1778039385 | 9.44° C | 80% | 1012.1 hPa | 0 mm | 0.45 m/s, 282° | - | - |
| 1778039086 | 9.44° C | 80% | 1012.2 hPa | 0 mm | 0.45 m/s, 282° | - | - |
| 1778038785 | 9.44° C | 80% | 1012.4 hPa | 0 mm | 0.89 m/s, 281° | - | - |
| 1778038485 | 9.44° C | 81% | 1012.2 hPa | 0 mm | 1.34 m/s, 281° | - | - |
| 1778038184 | 9.44° C | 81% | 1012 hPa | 0 mm | 0.89 m/s, 282° | - | - |
| 1778037885 | 9.44° C | 81% | 1012 hPa | 0 mm | 0.89 m/s, 282° | - | - |
| 1778037583 | 9.44° C | 80% | 1012 hPa | 0 mm | 0.89 m/s, 281° | - | - |
| 1778037283 | 9.44° C | 81% | 1012 hPa | 0 mm | 0.89 m/s, 282° | - | - |
| 1778036983 | 9.44° C | 82% | 1012 hPa | 0 mm | 0.89 m/s, 355° | - | - |
| 1778036682 | 9.44° C | 82% | 1012.1 hPa | 0 mm | 0.89 m/s, 355° | - | - |
| 1778036383 | 10° C | 80% | 1012 hPa | 0 mm | 0.45 m/s, 355° | - | - |
| 1778035782 | 10° C | 78% | 1011.9 hPa | 0 mm | 0 m/s | - | - |
| 1778035481 | 10° C | 74% | 1012 hPa | 0 mm | 0.89 m/s, 355° | - | - |
| 1778035181 | 10° C | 72% | 1011.9 hPa | 0 mm | 0.45 m/s, 355° | - | - |
| 1778034881 | 10° C | 73% | 1011.9 hPa | 0 mm | 0.89 m/s, 355° | - | - |
| 1778034581 | 10° C | 73% | 1011.8 hPa | 0 mm | 0.89 m/s, 355° | - | - |
| 1778034280 | 10° C | 73% | 1011.7 hPa | 0 mm | 0.89 m/s, 355° | - | - |
| 1778033981 | 10° C | 73% | 1011.5 hPa | 0 mm | 0 m/s | - | - |
* Rain latest hour (hover to see other rain measurements)
** Current wind speed in m/s (hover to see current wind gust speed)